Flag for U.S.A. Weather past 2 weeks in Neenah, Wisconsin, U.S.A.

Now
66 °F

Fog.


Feels Like: 66 °F
Forecast: 69 / 82 °F
Wind: 5 mph from East

Location: Appleton / Outagamie

Current Time: Aug 22, 2014 at 5:33:30 AM

Latest Report: Aug 22, 2014 at 4:55 AM


Visibility: 2 mi

Pressure: 29.92 "Hg

Humidity: 94%

Dew point: 64 °F

Location of NeenahLocation

Historic Weather in Neenah — Graph

°F

Neenah temperature yesterday

Maximum temperature yesterday: 73 °F (at 3:45 PM)
Minimum temperature yesterday: 63 °F (at 12:35 AM)
Average temperature yesterday: 67 °F

Past Weeks' High & Low Weather Summary

 TemperatureHumidityPressure
High82 °F (Aug 16, 2:45 PM)100% (Aug 12, 3:55 AM)32.99 "Hg (Aug 12, 3:55 AM)
Low46 °F (Aug 14, 4:55 AM)34% (Aug 7, 3:45 PM)29.66 "Hg (Aug 19, 3:55 AM)
Average65 °F75%29.98 "Hg
* Reported Aug 7 4:15 AM — Aug 22 4:15 AM, Neenah, Weather by CustomWeather, © 2014

Note: Actual official high and low records may vary slightly from our data, if they occured in-between our weather recording intervals... More about our weather records

Advertising

Neenah weather history for previous 24 hours

 ConditionsComfort  
Time TempWeatherWind HumidityBarometerVisibility
4:15 AM
Aug 22
66 °FFog.5 mph94%29.91 "Hg4 mi
3:55 AM68 °FFog.3 mph94%29.90 "Hg5 mi
3:35 AM68 °FFog.3 mph94%29.90 "Hg4 mi
3:15 AM66 °FFog.No wind100%29.91 "Hg4 mi
2:55 AM68 °FFog.6 mph94%29.90 "Hg4 mi
2:15 AM68 °FFog.No wind94%29.93 "Hg5 mi
1:55 AM68 °FFog.3 mph94%29.93 "Hg4 mi
1:35 AM68 °FFog.3 mph94%29.93 "Hg4 mi
1:15 AM68 °FFog.No wind94%29.95 "Hg4 mi
12:55 AM68 °FFog.3 mph94%29.94 "Hg3 mi
12:35 AM68 °FFog.5 mph94%29.95 "Hg2 mi
12:15 AM68 °FFog.3 mph94%29.95 "Hg2 mi
11:55 PM
Aug 21
68 °FFog.5 mph94%29.95 "Hg2 mi
11:35 PM68 °FFog.6 mph94%29.95 "Hg2 mi
11:15 PM68 °FFog.7 mph94%29.95 "Hg3 mi
10:45 PM68 °FFog.5 mph94%29.94 "Hg3 mi
9:45 PM70 °FFog.5 mph88%29.95 "Hg5 mi
8:45 PM70 °FFog.5 mph88%29.95 "Hg5 mi
7:45 PM70 °FMostly cloudy.5 mph88%29.94 "Hg7 mi
5:45 PM72 °FMostly cloudy.6 mph83%29.94 "Hg10 mi
4:45 PM72 °FPartly sunny.6 mph83%29.93 "Hg10 mi
3:45 PM73 °FPartly sunny.6 mph83%29.93 "Hg10 mi
2:45 PM70 °FPartly sunny.8 mph88%29.94 "Hg7 mi
1:45 PM68 °FMostly cloudy.9 mph94%29.93 "Hg7 mi
12:45 PM66 °FFog.5 mph100%29.96 "Hg4 mi
11:45 AM68 °FLight rain. Overcast.5 mph83%29.98 "Hg7 mi
10:45 AM70 °FOvercast.9 mph78%29.96 "Hg10 mi
9:45 AM68 °FMore clouds than sun.8 mph83%29.96 "Hg10 mi
8:45 AM68 °FPartly sunny.9 mph83%29.96 "Hg10 mi
7:45 AM66 °FScattered clouds.7 mph88%29.96 "Hg7 mi
6:45 AM64 °FPassing clouds.5 mph94%29.96 "Hg7 mi
5:45 AM64 °FPartly cloudy.3 mph94%29.94 "Hg10 mi
5:15 AM63 °FClear.3 mph94%29.94 "Hg10 mi
Weather by CustomWeather, © 2014

See weather overviewHow to use our weather pages